Content
SEND FEEDBACK

Daily
Averages
Monthly
Summary
Philippines

QUEZON CITY, PHILIPPINES


Home > Asia > Philippines
Elevation: 46 meters     Latitude: 14 39N     Longitude: 121 03E

WEATHER
 
SELECT A DAY
Number of Records: 170,281;   Date Range: 7/1/96 - 4/15/14
 
SHARE

PRINT THIS DATA

[ ← Previous Day ]
WEATHER ALMANAC - 14 AUGUST, 2013
[ Next Day → ]
[ °F ]   °C
Weather ElementAverageHighLow
Temperature29.3 °C32 °C (3:00 pm)26 °C (5:00 am)
Dewpoint23.9 °C26.1 °C (2:00 pm)22 °C (8:00 am)
Humidity71.5 %89 % (6:00 am)54 % (11:00 am)
Barometer974.9 hPa1012.2 hPa (11:00 pm) (7:00 pm)
Wind Speed7.9 km/h18.5 km/h (1:00 pm)
Weather ElementAverage
Visibility9.8 km
Wind DirectionSSE (168.2 °)

Weather ElementTotal
Precipitation---
Cooling Degree Days10.7 (Base 18.3)
Growing Degree Days19 (Base 10)
Averaged from 29 records on 14 August, 2013
WEATHER CONDITIONS BREAKOUT
WIND DIRECTION BREAKOUT
WEATHER BY HOUR - 14 AUGUST, 2013
[ °F ]   °C
Local TimeTemperatureDewpointHumidityBarometerVisibilityWind DirectionWind SpeedGust SpeedPrecipitationEventsConditions
1:00 AM27 °C23 °C79 %1009.1 hPa10 kmCalmScattered Clouds
2:00 AM27 °C24 °C84 %1009.1 hPa10 kmVariable1.9 km/hMostly Cloudy
3:00 AM27 °C24 °C84 %1008.1 hPa10 kmCalmMostly Cloudy
4:00 AM27 °C23 °C79 %1008.1 hPa10 kmCalmMostly Cloudy
5:00 AM26 °C23 °C83 %1008.1 hPa10 kmCalmMostly Cloudy
6:00 AM26 °C24 °C89 %1009.1 hPa9 kmCalmScattered Clouds
7:00 AM28 °C23 °C74 %10 kmCalmScattered Clouds
8:00 AM30 °C22 °C62 %1010.2 hPa10 kmESE (120°)5.6 km/hScattered Clouds
8:00 AM30 °C22.2 °C55 %1010.2 hPa9.7 kmESE (120°)7.2 km/hHaze
9:00 AM31 °C23 °C62 %1010.2 hPa10 kmWSW (240°)9.3 km/hScattered Clouds
10:00 AM31 °C23 °C62 %1010.2 hPa10 kmWest (270°)14.8 km/hScattered Clouds
11:00 AM31.1 °C22.8 °C54 %1011.2 hPa9.7 kmWest (280°)14.3 km/hClear
11:00 AM31 °C24 °C66 %1010.2 hPa10 kmWest (270°)11.1 km/hMostly Cloudy
12:00 PM31 °C23 °C62 %1010.2 hPa10 kmWest (280°)16.7 km/hScattered Clouds
1:00 PM31 °C24 °C66 %1009.1 hPa10 kmWNW (290°)18.5 km/hMostly Cloudy
2:00 PM31.1 °C26.1 °C68 %1009.5 hPa9.7 kmNW (320°)14.3 km/hHaze
2:00 PM31 °C25 °C70 %1008.1 hPa10 kmWNW (300°)16.7 km/hScattered Clouds
3:00 PM32 °C25 °C66 %1008.1 hPa10 kmWNW (290°)16.7 km/hScattered Clouds
4:00 PM31 °C23 °C62 %1008.1 hPa10 kmWest (280°)18.5 km/hMostly Cloudy
5:00 PM30 °C23.3 °C60 %1008.8 hPa9.7 kmWest (270°)14.3 km/hHaze
5:00 PM30 °C23 °C66 %1008.1 hPa10 kmWest (270°)14.8 km/hMostly Cloudy
6:00 PM30 °C24 °C70 %1009.1 hPa10 kmWest (280°)11.1 km/hMostly Cloudy
7:00 PM29 °C24 °C74 %1010.2 hPa10 kmWNW (290°)7.4 km/hRainLight Rain Showers
8:00 PM28.9 °C25 °C74 %1010.8 hPa9.7 kmWest (270°)7.2 km/hRainLight Rain
8:00 PM29 °C25 °C79 %1011.2 hPa9 kmWest (270°)7.4 km/hRainLight Rain
9:00 PM29 °C25 °C79 %1011.2 hPa9 kmCalmRainLight Rain
10:00 PM29 °C26 °C84 %1011.2 hPa8 kmCalmRainLight Rain
11:00 PM28.3 °C25 °C76 %1012.2 hPa9.7 kmCalmRainLight Rain
11:00 PM28 °C25 °C84 %1011.2 hPa10 kmVariable1.9 km/hMostly Cloudy
Hourly data recorded from RPLL, located 16.11 kilometers away from Quezon City, Philippines







STORIES FROM OUR PARTNERS